[[{"header":{"parameterUnit":"m.s-1","parameterCategory":1,"la1":30.2991,"la2":30.254,"lo1":-89.0895,"lo2":-89.0444,"dy":0.0017,"dx":0.0017,"nx":28,"ny":28,"refTime":"2025-02-27T09:00:00:Z","depth":0,"parameterNumber":2,"parameterNumberName":"U-component_of_WINDS"},"data":[0,0,0,0,0,0,0,0,0,0,0,0,0,0,0,0,0,0,0,0,0,0,0,0,0,0,0,0,0,0,0,0,0,0,0,0,0,0,0,0,0,0,0,0,0,0,0,0,0,0,0,0,0,0,0,0,0,0,0.1061,0.106,0,0.104,0.104,0.104,0.1,0.0999,0.0998,0.0998,0.0978,0.0978,0.0978,0,0,0,0,0,0,0,0,0,0,0,0,0,0.1065,0.1065,0.1061,0.106,0.106,0.104,0.104,0.104,0.1,0.0999,0.0998,0.0997,0.0977,0.0978,0.0978,0,0,0,0,0,0,0,0,0,0,0,0,0,0.1056,0.1065,0.1061,0.1038,0.1036,0.104,0.104,0.104,0.1,0.0999,0.0998,0.0997,0.0977,0.0978,0.0978,0.1003,0,0,0.0979,0.0979,0,0,0,0,0,0,0,0,0.1056,0.1056,0.1041,0.1039,0.1037,0.1021,0.1034,0.1027,0.1001,0.1014,0.0998,0.0996,0.0993,0.0992,0.0991,0.1002,0.1002,0.0979,0.0979,0.0979,0.0979,0,0,0,0,0,0,0,0.1057,0.1056,0.1052,0.1041,0.1039,0.1029,0.1026,0.1033,0.101,0.1013,0.101,0.1008,0.0992,0.0991,0.099,0.1001,0.0979,0.0979,0.0979,0.0979,0.1032,0.1033,0,0,0,0,0,0,0.1061,0.1057,0.1053,0.1052,0.1044,0.103,0.1027,0.1028,0.101,0.1006,0.1009,0.1006,0.0991,0.099,0.0989,0.1018,0.0979,0.0979,0.098,0.1031,0.1032,0.1034,0,0,0,0,0,0,0.1061,0.1061,0.1054,0.1054,0.1052,0.1031,0.1032,0.1028,0.1027,0.1007,0.1003,0.1012,0.099,0.0989,0.1,0.1016,0.098,0.098,0.1029,0.1031,0.1033,0.1075,0,0,0,0,0,0,0.1062,0.1061,0.1071,0.1054,0.1052,0.1065,0.1033,0.1028,0.1027,0.1023,0.1009,0.1006,0.0989,0.1,0.1,0.1016,0.098,0.1028,0.103,0.1032,0.1072,0.1078,0.1083,0,0,0,0,0,0.1062,0.1084,0.1072,0.1071,0.1064,0.1066,0.1065,0.1045,0.1029,0.1038,0.1025,0.1006,0.1014,0.1001,0.1001,0.1018,0.1027,0.103,0.1032,0.107,0.1077,0.1083,0,0,0,0,0,0,0.1103,0.1081,0.1067,0.1084,0.1078,0.106,0.1071,0.1054,0.1051,0.1048,0.1023,0.102,0.1035,0.1027,0.1013,0.1041,0.1017,0.102,0.1046,0.1053,0.1058,0.106,0.098,0,0,0,0,0,0.1114,0.1118,0.1099,0.1116,0.1113,0.1092,0.1093,0.1078,0.107,0.1067,0.1055,0.1048,0.1049,0.105,0.105,0.1071,0.1067,0.1082,0.1087,0.1092,0.1095,0.1105,0.1112,0.1043,0.1043,0.1043,0,0,0.1137,0.1126,0.113,0.1124,0.1116,0.1121,0.109,0.1097,0.11,0.1068,0.1078,0.1069,0.1059,0.1075,0.1082,0.1069,0.1113,0.1096,0.1099,0.11,0.1109,0.1115,0.1121,0.1045,0.1044,0.1044,0,0,0.1182,0.1173,0.1186,0.118,0.1169,0.1155,0.1158,0.1143,0.1136,0.1145,0.1121,0.1124,0.1127,0.1121,0.1118,0.116,0.1142,0.116,0.119,0.12,0.1205,0.121,0.1225,0.1231,0.1163,0.1163,0.1163,0,0.1212,0.1218,0.1195,0.1203,0.1201,0.1172,0.1185,0.118,0.117,0.1169,0.1155,0.1157,0.1149,0.1163,0.1173,0.1171,0.1174,0.1162,0.1206,0.1211,0.1215,0.1229,0.1234,0.1166,0.1165,0.1165,0.1165,0,0.1255,0.126,0.1272,0.1263,0.1262,0.1272,0.1251,0.1253,0.1238,0.1226,0.1236,0.1224,0.1221,0.1223,0.1209,0.1235,0.1228,0.1211,0.1186,0.1224,0.1237,0.1242,0.1169,0.1168,0.1167,0.1167,0,0,0.1326,0.1304,0.1309,0.1304,0.129,0.1293,0.1302,0.1298,0.1301,0.1294,0.1302,0.1304,0.1287,0.1284,0.1269,0.1278,0.1311,0.1259,0.1258,0.1269,0.134,0.1354,0.136,0.1299,0.13,0.1301,0.1341,0,0.1368,0.1382,0.1362,0.138,0.1384,0.1356,0.1364,0.1356,0.1344,0.1346,0.1333,0.1335,0.1313,0.1311,0.1319,0.1306,0.1325,0.1302,0.1306,0.1306,0.1309,0.1367,0.1381,0.142,0.1346,0.1346,0.1347,0,0.1419,0.1415,0.1434,0.1418,0.1419,0.1426,0.1421,0.1423,0.1413,0.1404,0.1401,0.1382,0.139,0.1366,0.1376,0.1361,0.1361,0.1354,0.1355,0.1355,0.1329,0.1369,0.1432,0.1438,0.1355,0.1354,0.1354,0,0.1469,0.1468,0.1479,0.1476,0.1458,0.1464,0.1456,0.1446,0.1445,0.144,0.144,0.1436,0.1435,0.1433,0.1414,0.1398,0.1426,0.1401,0.1419,0.142,0.1427,0.1427,0.1491,0.1426,0.1426,0.1426,0.1426,0,0.1518,0.1531,0.1502,0.1509,0.1522,0.1498,0.1512,0.1502,0.1493,0.1497,0.1472,0.1477,0.1451,0.1453,0.1438,0.1449,0.1448,0.1441,0.1438,0.1444,0.1445,0.1444,0.1441,0.1427,0.1427,0.1427,0.1427,0,0.1576,0.1557,0.1568,0.155,0.1545,0.1556,0.154,0.1546,0.1532,0.1539,0.1539,0.1518,0.1519,0.1499,0.1496,0.1486,0.1504,0.1495,0.1507,0.1505,0.1524,0.1523,0.1591,0.1599,0.1528,0.1529,0.1529,0,0.1609,0.1618,0.1601,0.1602,0.1596,0.1598,0.1597,0.1574,0.1574,0.1563,0.157,0.1569,0.1567,0.157,0.1554,0.1552,0.1543,0.1567,0.1543,0.1549,0.1544,0.1544,0.1545,0.1572,0.1573,0.1574,0.1575,0,0.167,0.166,0.1659,0.1655,0.1654,0.165,0.1644,0.1647,0.1621,0.1622,0.1623,0.1621,0.1618,0.1617,0.1612,0.1604,0.1586,0.1582,0.1586,0.1594,0.1601,0.1597,0.1522,0.1581,0.158,0.158,0.1579,0.1579,0.1717,0.1723,0.1712,0.1712,0.1705,0.17,0.1704,0.1691,0.1691,0.1687,0.1673,0.1676,0.1666,0.1656,0.165,0.1652,0.1641,0.1647,0.1648,0.165,0.1654,0.16,0.1651,0.1651,0.1651,0.1651,0.165,0,0.1776,0.1767,0.1767,0.176,0.176,0.1741,0.1734,0.1735,0.1738,0.173,0.1728,0.1728,0.1727,0.1712,0.1709,0.1713,0.1705,0.1713,0.1713,0.1712,0.1665,0.1662,0.1721,0.1721,0.1721,0.1721,0.172,0.172,0.1807,0.1817,0.1806,0.1813,0.1803,0.1806,0.1803,0.1799,0.1792,0.1794,0.1793,0.1782,0.1771,0.1767,0.1765,0.176,0.1761,0.1773,0.1765,0.1722,0.1715,0.1709,0.1706,0.1773,0.1773,0.1812,0.1812,0.1813]},{"header":{"parameterUnit":"m.s-1","parameterCategory":1,"la1":30.2991,"la2":30.254,"lo1":-89.0895,"lo2":-89.0444,"dy":0.0017,"dx":0.0017,"nx":28,"ny":28,"refTime":"2025-02-27T09:00:00:Z","depth":0,"parameterNumber":3,"parameterNumberName":"V-component_of_WINDS"},"data":[0,0,0,0,0,0,0,0,0,0,0,0,0,0,0,0,0,0,0,0,0,0,0,0,0,0,0,0,0,0,0,0,0,0,0,0,0,0,0,0,0,0,0,0,0,0,0,0,0,0,0,0,0,0,0,0,0,0,2.1364,2.1365,0,2.1399,2.14,2.14,2.1375,2.1374,2.1373,2.1372,2.1406,2.1408,2.141,0,0,0,0,0,0,0,0,0,0,0,0,0,2.1273,2.1275,2.1364,2.1365,2.1365,2.1399,2.14,2.14,2.1375,2.1374,2.1373,2.1371,2.1406,2.1408,2.141,0,0,0,0,0,0,0,0,0,0,0,0,0,2.1311,2.1276,2.1364,2.1357,2.1356,2.1399,2.14,2.14,2.1376,2.1374,2.1372,2.1371,2.1405,2.1408,2.141,2.1462,0,0,2.1419,2.1421,0,0,0,0,0,0,0,0,2.1309,2.1314,2.1357,2.1357,2.1357,2.1381,2.138,2.1421,2.1376,2.1368,2.1372,2.137,2.1399,2.1402,2.1413,2.1464,2.1465,2.142,2.1421,2.1423,2.1424,0,0,0,0,0,0,0,2.1306,2.1313,2.1378,2.1358,2.1358,2.1351,2.1355,2.1388,2.1393,2.1369,2.1367,2.1372,2.1399,2.141,2.1413,2.1466,2.142,2.1422,2.1424,2.1425,2.156,2.1562,0,0,0,0,0,0,2.1305,2.1311,2.1377,2.1379,2.1328,2.1354,2.1358,2.1375,2.1392,2.1393,2.1373,2.137,2.1406,2.141,2.1414,2.1476,2.1423,2.1425,2.1427,2.1559,2.1561,2.1563,0,0,0,0,0,0,2.1303,2.1311,2.1375,2.1344,2.1352,2.1357,2.1377,2.1377,2.1388,2.1395,2.1396,2.1384,2.1404,2.141,2.145,2.1477,2.1427,2.1429,2.1556,2.1559,2.1562,2.1599,0,0,0,0,0,0,2.13,2.131,2.133,2.1345,2.1354,2.1412,2.1378,2.1379,2.1393,2.139,2.1406,2.1407,2.1404,2.1446,2.1453,2.148,2.1432,2.1554,2.1558,2.1561,2.1595,2.1603,2.1609,0,0,0,0,0,2.1297,2.1339,2.1332,2.134,2.1379,2.1413,2.1418,2.1415,2.1395,2.1415,2.142,2.1406,2.1473,2.1451,2.1458,2.1486,2.1552,2.1557,2.1561,2.1592,2.1601,2.1609,0,0,0,0,0,0,2.1327,2.1341,2.1333,2.1381,2.1396,2.1409,2.1434,2.1424,2.1445,2.1441,2.1435,2.1438,2.1481,2.1487,2.1462,2.1537,2.1509,2.1515,2.1531,2.1539,2.1546,2.1543,2.1434,0,0,0,0,0,2.1339,2.1366,2.1377,2.1418,2.1426,2.1429,2.1444,2.1439,2.1455,2.1461,2.1469,2.1484,2.1508,2.1524,2.1547,2.1596,2.1599,2.1619,2.1626,2.1631,2.1636,2.1663,2.1672,2.1576,2.1576,2.1576,0,0,2.1364,2.1375,2.1393,2.1424,2.1436,2.1463,2.1434,2.1465,2.1485,2.1465,2.1504,2.151,2.1526,2.1572,2.1592,2.1578,2.1663,2.1636,2.1641,2.1643,2.1668,2.1677,2.1685,2.1579,2.1579,2.1578,0,0,2.1425,2.1436,2.1472,2.1484,2.1501,2.1503,2.1512,2.1526,2.153,2.1568,2.1554,2.1578,2.162,2.1632,2.1643,2.1708,2.1696,2.1716,2.1751,2.1777,2.1784,2.1791,2.1814,2.1822,2.1721,2.1721,2.1721,0,2.1454,2.1495,2.1491,2.1523,2.1537,2.1521,2.1557,2.1568,2.1592,2.1602,2.1587,2.1639,2.1649,2.1697,2.1712,2.1722,2.1732,2.1714,2.1784,2.179,2.1796,2.1818,2.1827,2.1723,2.1723,2.1723,2.1722,0,2.153,2.1559,2.1586,2.161,2.1627,2.1661,2.1661,2.1679,2.1673,2.1676,2.1715,2.1727,2.1751,2.1762,2.1757,2.1809,2.18,2.1784,2.1757,2.1808,2.1828,2.1837,2.1726,2.1726,2.1725,2.1724,0,0,2.161,2.1632,2.1642,2.1652,2.1671,2.1693,2.1725,2.175,2.1765,2.1782,2.1809,2.1845,2.183,2.1844,2.1839,2.1862,2.1913,2.1843,2.1844,2.1856,2.1971,2.1983,2.1993,2.1905,2.1906,2.1908,2.197,0,2.1672,2.1729,2.1726,2.178,2.1806,2.1791,2.182,2.1834,2.1837,2.186,2.1863,2.1889,2.1868,2.1876,2.1897,2.1902,2.1936,2.1897,2.1929,2.193,2.1926,2.2003,2.2016,2.2074,2.1978,2.1979,2.198,0,2.1751,2.1771,2.1828,2.1842,2.1853,2.1879,2.1901,2.1923,2.1938,2.1939,2.1954,2.1946,2.1978,2.195,2.1994,2.1968,2.1981,2.1985,2.1987,2.199,2.1958,2.2008,2.2093,2.2102,2.1993,2.1992,2.1991,0,2.1804,2.1845,2.1884,2.1894,2.1912,2.193,2.1938,2.1952,2.1967,2.1986,2.1996,2.2018,2.203,2.2048,2.2046,2.2025,2.2091,2.2062,2.2092,2.2092,2.2107,2.2106,2.2194,2.2115,2.2115,2.2114,2.2114,0,2.1873,2.1908,2.1908,2.1933,2.1971,2.1967,2.2005,2.2011,2.2024,2.2048,2.2036,2.2059,2.2055,2.2078,2.2077,2.2114,2.2119,2.2121,2.212,2.2122,2.2122,2.213,2.2126,2.2117,2.2116,2.2116,2.2115,0,2.1938,2.194,2.1982,2.1995,2.1999,2.2027,2.2039,2.2061,2.2064,2.2095,2.2102,2.2106,2.2132,2.2132,2.2162,2.2161,2.2206,2.22,2.2201,2.22,2.223,2.2227,2.2327,2.234,2.2252,2.2253,2.2253,0,2.1982,2.2009,2.2026,2.2041,2.2051,2.2077,2.2092,2.2089,2.2105,2.2124,2.2145,2.217,2.219,2.2233,2.2238,2.2261,2.2256,2.2289,2.2259,2.226,2.2256,2.2255,2.2258,2.2295,2.2296,2.2297,2.2298,0,2.206,2.206,2.2083,2.2106,2.2125,2.2143,2.216,2.2173,2.2172,2.219,2.2218,2.2233,2.2264,2.2289,2.2311,2.2319,2.2308,2.2307,2.2315,2.2318,2.2317,2.2318,2.2217,2.2305,2.2304,2.2304,2.2303,2.2303,2.2117,2.214,2.2155,2.2181,2.2193,2.2209,2.2231,2.2236,2.2259,2.2284,2.228,2.2311,2.2325,2.2353,2.2363,2.2386,2.2374,2.2386,2.2389,2.2392,2.2396,2.2313,2.239,2.239,2.239,2.2389,2.2389,0,2.2194,2.2203,2.2227,2.2251,2.2271,2.2259,2.2277,2.2295,2.2322,2.2336,2.2356,2.2387,2.2412,2.2419,2.2442,2.246,2.2455,2.2466,2.2465,2.2467,2.2405,2.2395,2.2469,2.2469,2.2469,2.2469,2.2469,2.2469,2.2237,2.2275,2.2277,2.2321,2.2329,2.2359,2.2371,2.2385,2.2396,2.2432,2.2452,2.2457,2.2468,2.2492,2.2514,2.2515,2.2524,2.2537,2.2537,2.2479,2.2471,2.2463,2.2454,2.2539,2.2539,2.2596,2.2597,2.2597]}]]